Regional Weather Roundup
Issued by NWS

Home | Current Version | Previous Version | Graphics & Text | Print | Product List | Glossary On
Versions: 1 2 3 4 5 6 7 8 9 10 11 12 13 14 15 16 17 18 19 20 21 22 23 24 25 26 27 28 29 30 31 32 33 34 35 36 37 38 39 40 41 42 43 44 45 46 47 48 49 50
000
ASUS43 KBIS 230510
RWRND

NORTH DAKOTA REGIONAL WEATHER ROUNDUP
NATIONAL WEATHER SERVICE BISMARCK ND
1100 PM CST SAT NOV 22 2014

NOTE: "FAIR" INDICATES FEW OR NO CLOUDS BELOW 12,000 FEET WITH NO
SIGNIFICANT WEATHER AND/OR OBSTRUCTIONS TO VISIBILITY.


NDZ001>003-009>011-017-230600-
NORTHWEST NORTH DAKOTA

CITY           SKY/WX    TMP DP  RH WIND       PRES   REMARKS
WILLISTON      PTCLDY    40  27  59 W20G25    29.28S
MINOT          PTCLDY    37  29  72 SW10      29.28R
MINOT AFB      PTCLDY    37  32  84 SW13      29.26S
$$

NDZ018>021-031>035-040>046-230600-
SOUTHWEST NORTH DAKOTA

CITY           SKY/WX    TMP DP  RH WIND       PRES   REMARKS
BISMARCK       CLEAR     34  33  96 W7        29.36R
DICKINSON      CLOUDY    40  33  76 W16       29.35R
GARRISON         N/A     37  34  89 W12       29.32R
HETTINGER ARPT CLOUDY    38  32  79 W9        29.41R
$$

NDZ004>008-012>016-024-026-027-054-230600-
NORTHEAST NORTH DAKOTA

CITY           SKY/WX    TMP DP  RH WIND       PRES   REMARKS
GRAND FORKS    CLOUDY    34  31  88 S14       29.36F
GRND FRKS AFB  CLOUDY    34  33  99 S14       29.34F
DEVILS LAKE    CLOUDY    34  25  69 S6        29.28S
$$

NDZ022-023-025-028>030-036>039-047>053-230600-
SOUTHEAST NORTH DAKOTA

CITY           SKY/WX    TMP DP  RH WIND       PRES   REMARKS
FARGO          CLOUDY    36  33  89 S15       29.38S FOG
JAMESTOWN      MOCLDY    28  25  88 S8        29.32R WCI  20
$$




USA.gov is the U.S. government's official web portal to all federal, state and local government web resources and services.